Location: *
(47.6569°N, 7.4256°E)
Time: 16:36:55
(UTC+00:00)

NOAA 12 - Pass Details

Date: 14 December 2019
Orbit: 795 x 815 km, 98.5° (Epoch: 27 January)

Event Time Altitude Azimuth Distance (km) Brightness Sun altitude
Rises 17:13:06 0° 166° (SSE) 3,318 7.3 -15.0°
Reaches altitude 10° 17:15:26 10° 167° (SSE) 2,389 6.6 -15.4°
Maximum altitude 17:20:44 84° 255° (WSW) 818 4.1 -16.3°
Drops below altitude 10° 17:26:03 10° 345° (NNW) 2,393 6.6 -17.1°
Sets 17:28:23 0° 346° (NNW) 3,325 7.3 -17.5°
